Content
SEND FEEDBACK

Daily
Averages
Monthly
Summary
Russia

YELABUGA, RUSSIA


Home > Europe > Russia
Elevation: 295 feet     Latitude: 55 46N     Longitude: 052 04E

WEATHER
 
SELECT A DAY
Number of Records: 155,874;   Date Range: 10/5/00 - 9/21/14
 
SHARE

PRINT THIS DATA

[ ← Previous Day ]
WEATHER ALMANAC - JANUARY 31, 2013
[ Next Day → ]
[ °C ]   °F
Weather ElementAverageHighLow
Temperature11 °F17.6 °F (10:00 am)5 °F (7:00 am)
Dewpoint-5.1 °F1.4 °F (4:00 pm)-13 °F (6:00 am)
Humidity48.9 %67 % (11:00 pm)38 % (10:00 am)
Barometer30.10 in30.24 in (12:30 am)29.92 in (11:00 pm)
Wind Speed6.4 mph13.4 mph (12:30 am)
Weather ElementAverage
Visibility6.2 mi
Wind DirectionESE (103.8 °)

Weather ElementTotal
Precipitation---
Heating Degree Days53.7 (Base 65)
Averaged from 47 records on January 31, 2013
WEATHER CONDITIONS BREAKOUT
WIND DIRECTION BREAKOUT
WEATHER BY HOUR - JANUARY 31, 2013
[ °C ]   °F
Local TimeTemperatureDewpointHumidityBarometerVisibilityWind DirectionWind SpeedGust SpeedPrecipitationEventsConditions
12:30 AM10.4 °F-9.4 °F41 %30.24 inSW (220°)13.4 mphClear
1:00 AM8.6 °F-9.4 °F44 %30.21 inSW (230°)11.2 mphClear
1:30 AM8.6 °F-9.4 °F44 %30.21 inSW (220°)8.9 mphClear
2:00 AM8.6 °F-9.4 °F44 %30.21 inSSW (210°)8.9 mphClear
2:30 AM8.6 °F-9.4 °F44 %30.21 inWSW (240°)8.9 mphClear
3:00 AM6.8 °F-9.4 °F48 %30.18 inWSW (250°)6.7 mphClear
3:30 AM6.8 °F-9.4 °F48 %30.18 inWest (260°)6.7 mphClear
4:00 AM8.6 °F-11.2 °F40 %30.18 inCalmClear
4:30 AM8.6 °F-11.2 °F40 %30.18 inCalmClear
5:00 AM8.6 °F-11.2 °F40 %30.18 inCalmClear
5:30 AM8.6 °F-11.2 °F40 %30.18 inSouth (190°)4.5 mphClear
6:00 AM6.8 °F-13.0 °F40 %30.18 inSouth (170°)6.7 mphClear
6:30 AM6.8 °F-13.0 °F40 %30.18 inSouth (170°)6.7 mphClear
7:00 AM5.0 °F-11.2 °F47 %30.15 inSouth (170°)4.5 mphClear
7:30 AM5.0 °F-11.2 °F47 %30.15 inSouth (170°)4.5 mphClear
8:00 AM8.6 °F-7.6 °F48 %30.15 inSSE (150°)6.7 mphClear
8:30 AM8.6 °F-7.6 °F48 %30.15 inSSE (160°)8.9 mphClear
9:00 AM14.0 °F-4.0 °F45 %30.15 inSSE (160°)8.9 mphClear
9:30 AM14.0 °F-4.0 °F45 %30.15 inSSE (150°)8.9 mphClear
10:00 AM17.6 °F-4.0 °F38 %30.15 inEast (100°)4.5 mphClear
10:30 AM17.6 °F-4.0 °F38 %30.15 inEast (80°)4.5 mphClear
11:00 AM10.4 °F-7.6 °F44 %30.12 inENE (70°)4.5 mphClear
11:30 AM10.4 °F-7.6 °F44 %30.12 inEast (100°)4.5 mphClear
12:00 PM12.2 °F-5.8 °F45 %30.12 inESE (120°)6.7 mphClear
12:30 PM12.2 °F-5.8 °F45 %30.12 inCalmClear
1:00 PM14.0 °F-2.2 °F49 %30.09 inCalmClear
1:30 PM14.0 °F-2.2 °F49 %30.09 inEast (100°)4.5 mphClear
2:00 PM14.0 °F-0.4 °F53 %30.09 inEast (90°)6.7 mphClear
2:30 PM14.0 °F-0.4 °F53 %30.09 inEast (100°)4.5 mphClear
3:00 PM14.0 °F-0.4 °F53 %30.06 inENE (70°)6.7 mphClear
3:30 PM14.0 °F-0.4 °F53 %30.06 inENE (60°)6.7 mphClear
4:00 PM15.8 °F1.4 °F53 %30.06 inEast (80°)6.7 mphClear
4:30 PM15.8 °F1.4 °F53 %30.06 inNE (50°)4.5 mphClear
5:00 PM15.8 °F1.4 °F53 %30.06 inNE (50°)4.5 mphClear
5:30 PM15.8 °F1.4 °F53 %30.06 inENE (60°)4.5 mphClear
6:00 PM14.0 °F-0.4 °F53 %30.04 inNE (50°)8.9 mphClear
6:30 PM14.0 °F-0.4 °F53 %30.04 inNE (50°)8.9 mphClear
7:00 PM12.2 °F-2.2 °F53 %30.01 inENE (60°)8.9 mphClear
7:30 PM12.2 °F-2.2 °F53 %30.01 inEast (80°)8.9 mphClear
8:00 PM12.2 °F-2.2 °F53 %30.01 in6.2 miENE (70°)8.9 mphPartly Cloudy
8:30 PM12.2 °F-2.2 °F53 %30.01 in6.2 miNE (50°)6.7 mphScattered Clouds
9:00 PM10.4 °F-2.2 °F57 %30.01 in6.2 miENE (60°)11.2 mphScattered Clouds
9:30 PM10.4 °F-2.2 °F57 %29.98 in6.2 miENE (60°)11.2 mphScattered Clouds
10:00 PM8.6 °F-2.2 °F62 %29.98 in6.2 miNE (40°)8.9 mphScattered Clouds
10:30 PM8.6 °F-2.2 °F62 %29.98 in6.2 miNNE (30°)6.7 mphScattered Clouds
11:00 PM6.8 °F-2.2 °F67 %29.92 inNE (40°)4.5 mphClear
11:30 PM6.8 °F-2.2 °F67 %29.92 inNE (40°)6.7 mphClear
Hourly data recorded from UWKE, located miles away from Yelabuga, Russia







STORIES FROM OUR PARTNERS